EW5982 Weather Reports


Display with metric or nautical units.
time (UTC)temp
F
wind
direction
speed
MPH
gust
MPH
rain 1hr
in
rain 24hr
in
rain mn
in
humidity
%
barometer
mb
20260504081532 51 188 2.0 5.0 0.00 0.00 0.00 56 999.0
20260504081014 51 182 2.0 5.0 0.00 0.00 0.00 56 999.1
20260504080517 51 159 2.0 4.0 0.00 0.00 0.00 56 999.1
20260504050525 54 188 2.0 6.0 0.00 0.00 0.00 50 1002.4
20260504045522 54 196 2.0 4.0 0.00 0.00 0.00 50 1002.6
20260504045021 54 187 2.0 4.0 0.00 0.00 0.00 50 1002.7
20260504044523 54 181 2.0 4.0 0.00 0.00 0.00 50 1002.7
20260504044024 54 179 2.0 4.0 0.00 0.00 0.00 51 1002.8
20260504043526 54 186 3.0 4.0 0.00 0.00 0.00 50 1002.9
20260504043030 54 179 2.0 4.0 0.00 0.00 0.00 51 1003.0
20260504042532 54 173 2.0 5.0 0.00 0.00 0.00 50 1003.0
20260504042030 54 179 2.0 3.0 0.00 0.00 0.00 50 1003.1
20260504041530 54 220 1.0 3.0 0.00 0.00 0.00 51 1003.3
20260504041032 54 235 1.0 2.0 0.00 0.00 0.00 52 1003.3
20260504040514 54 235 1.0 1.0 0.00 0.00 0.00 52 1003.5
20260504040033 54 235 0.0 1.0 0.00 0.00 0.00 50 1003.5
20260504035535 55 235 0.0 1.0 0.00 0.00 0.00 51 1003.6
20260504035032 55 235 0.0 2.0 0.00 0.00 0.00 49 1003.8
20260504034533 55 235 1.0 2.0 0.00 0.00 0.00 49 1003.9
20260504034032 56 235 0.0 1.0 0.00 0.00 0.00 48 1003.9
20260504033514 56 235 0.0 1.0 0.00 0.00 0.00 48 1004.0
20260504033014 56 235 0.0 1.0 0.00 0.00 0.00 48 1004.1
20260504032516 56 235 0.0 2.0 0.00 0.00 0.00 48 1004.2
20260504032018 57 235 1.0 2.0 0.00 0.00 0.00 49 1004.2
20260504031521 57 235 0.0 2.0 0.00 0.00 0.00 45 1004.3
20260504031021 57 235 1.0 2.0 0.00 0.00 0.00 45 1004.3
20260504030520 57 235 0.0 2.0 0.00 0.00 0.00 44 1004.4
20260504030019 57 273 0.0 1.0 0.00 0.00 0.00 46 1004.4
20260504025521 57 273 0.0 1.0 0.00 0.00 0.00 45 1004.4
20260504025020 58 273 0.0 1.0 0.00 0.00 0.00 44 1004.4
20260504024528 58 273 0.0 1.0 0.00 0.00 0.00 44 1004.4
20260504024030 58 273 0.0 0.0 0.00 0.00 0.00 43 1004.5
20260504023515 59 273 0.0 0.0 0.00 0.00 0.00 43 1004.5
20260504023022 59 273 0.0 0.0 0.00 0.00 0.00 42 1004.5
20260504022520 60 273 0.0 0.0 0.00 0.00 0.00 41 1004.6
20260504022027 60 273 0.0 0.0 0.00 0.00 0.00 41 1004.6
20260504021533 60 273 0.0 0.0 0.00 0.00 0.00 41 1004.6
20260504021015 61 273 0.0 0.0 0.00 0.00 0.00 40 1004.6
20260504020516 61 273 0.0 0.0 0.00 0.00 0.00 39 1004.6
20260504020022 62 273 0.0 0.0 0.00 0.00 0.00 38 1004.6
20260504015522 62 273 0.0 0.0 0.00 0.00 0.00 38 1004.6
20260504015027 63 273 0.0 1.0 0.00 0.00 0.00 37 1004.6
20260504014529 63 273 0.0 1.0 0.00 0.00 0.00 37 1004.6
20260504014032 64 273 0.0 1.0 0.00 0.00 0.00 36 1004.7
20260504013531 64 273 0.0 1.0 0.00 0.00 0.00 35 1004.8
20260504013033 65 289 0.0 2.0 0.00 0.00 0.00 33 1004.8
20260504012531 65 288 0.0 2.0 0.00 0.00 0.00 32 1004.9
20260504012031 65 288 0.0 2.0 0.00 0.00 0.00 32 1004.9
20260504011531 66 309 0.0 7.0 0.00 0.00 0.00 32 1004.9
20260504011030 66 309 0.0 7.0 0.00 0.00 0.00 31 1004.9
20260504010531 67 288 0.0 3.0 0.00 0.00 0.00 30 1005.0
20260504010031 67 310 2.0 4.0 0.00 0.00 0.00 30 1005.0
20260504005531 67 296 2.0 4.0 0.00 0.00 0.00 29 1005.0
20260504005033 67 327 1.0 5.0 0.00 0.00 0.00 28 1005.0
20260504004536 67 303 3.0 6.0 0.00 0.00 0.00 27 1005.0
20260504004044 67 319 3.0 8.0 0.00 0.00 0.00 29 1005.1
20260504003544 68 280 5.0 8.0 0.00 0.00 0.00 27 1005.2
20260504003054 68 322 2.0 9.0 0.00 0.00 0.00 28 1005.1
20260504002537 68 277 4.0 9.0 0.00 0.00 0.00 27 1005.1
20260504002037 68 283 3.0 8.0 0.00 0.00 0.00 28 1005.2
20260504001542 68 296 3.0 9.0 0.00 0.00 0.00 28 1005.2
20260504001048 68 269 3.0 9.0 0.00 0.00 0.00 28 1005.2
20260504000556 68 225 2.0 8.0 0.00 0.00 0.00 27 1005.2
20260504000037 69 328 4.0 8.0 0.00 0.00 0.00 27 1005.2
20260503235558 69 302 3.0 9.0 0.00 0.00 0.00 27 1005.3
20260503235039 69 318 5.0 11.0 0.00 0.00 0.00 27 1005.3
20260503234547 70 213 2.0 10.0 0.00 0.00 0.00 29 1005.3
20260503234028 70 340 3.0 10.0 0.00 0.00 0.00 27 1005.3
20260503233530 70 340 4.0 11.0 0.00 0.00 0.00 25 1005.2
20260503233031 70 321 3.0 11.0 0.00 0.00 0.00 26 1005.3
20260503232531 70 328 3.0 9.0 0.00 0.00 0.00 27 1005.3
20260503232031 70 319 4.0 11.0 0.00 0.00 0.00 27 1005.4
20260503231531 70 293 6.0 11.0 0.00 0.00 0.00 27 1005.6
20260503231032 69 250 5.0 9.0 0.00 0.00 0.00 27 1005.6
20260503230533 70 351 4.0 9.0 0.00 0.00 0.00 27 1005.6
20260503230036 70 335 4.0 9.0 0.00 0.00 0.00 29 1005.7
20260503225536 70 330 3.0 9.0 0.00 0.00 0.00 28 1005.6
20260503225037 70 298 4.0 9.0 0.00 0.00 0.00 27 1005.7
20260503224540 70 303 3.0 10.0 0.00 0.00 0.00 27 1005.7
20260503224041 69 303 4.0 11.0 0.00 0.00 0.00 27 1005.7
20260503223547 70 311 5.0 14.0 0.00 0.00 0.00 27 1005.8
20260503223054 69 9 3.0 11.0 0.00 0.00 0.00 27 1005.8
20260503222536 69 330 7.0 11.0 0.00 0.00 0.00 28 1005.9
20260503222042 69 17 6.0 11.0 0.00 0.00 0.00 27 1005.8
20260503221548 69 331 7.0 11.0 0.00 0.00 0.00 25 1005.8
20260503221054 69 348 6.0 13.0 0.00 0.00 0.00 27 1005.8
20260503220535 69 298 4.0 13.0 0.00 0.00 0.00 27 1006.0
20260503220101 70 310 6.0 13.0 0.00 0.00 0.00 28 1006.0
20260503215539 70 278 6.0 13.0 0.00 0.00 0.00 27 1005.9
20260503215047 69 290 4.0 13.0 0.00 0.00 0.00 26 1005.9
20260503214555 70 322 5.0 10.0 0.00 0.00 0.00 28 1006.0
20260503214015 70 324 3.0 9.0 0.00 0.00 0.00 30 1006.0
20260503213516 70 12 5.0 12.0 0.00 0.00 0.00 29 1006.1
20260503213018 69 301 5.0 12.0 0.00 0.00 0.00 28 1006.0
20260503212517 69 291 7.0 11.0 0.00 0.00 0.00 29 1006.1
20260503212017 70 306 5.0 12.0 0.00 0.00 0.00 29 1006.1
20260503211518 70 319 6.0 12.0 0.00 0.00 0.00 29 1006.2
20260503211020 69 315 4.0 11.0 0.00 0.00 0.00 29 1006.2
20260503210521 69 26 5.0 12.0 0.00 0.00 0.00 29 1006.3
20260503210019 69 311 7.0 12.0 0.00 0.00 0.00 29 1006.3
20260503205518 70 313 4.0 11.0 0.00 0.00 0.00 31 1006.3
20260503205017 69 348 4.0 13.0 0.00 0.00 0.00 30 1006.4
20260503204519 69 251 6.0 11.0 0.00 0.00 0.00 31 1006.4
20260503204021 69 315 7.0 14.0 0.00 0.00 0.00 31 1006.5
20260503203523 69 336 8.0 14.0 0.00 0.00 0.00 30 1006.5
20260503203024 69 309 5.0 15.0 0.00 0.00 0.00 30 1006.6
20260503202524 69 317 7.0 15.0 0.00 0.00 0.00 28 1006.6
20260503202023 69 293 6.0 12.0 0.00 0.00 0.00 31 1006.8
20260503201523 69 275 7.0 16.0 0.00 0.00 0.00 31 1006.7
20260503201024 69 331 6.0 12.0 0.00 0.00 0.00 32 1006.7
20260503200526 69 360 5.0 11.0 0.00 0.00 0.00 33 1006.8
20260503200025 68 17 7.0 13.0 0.00 0.00 0.00 31 1006.9
20260503195527 68 329 8.0 14.0 0.00 0.00 0.00 32 1007.1
20260503195030 69 340 9.0 15.0 0.00 0.00 0.00 31 1007.1
20260503194533 68 315 8.0 16.0 0.00 0.00 0.00 31 1007.2
20260503194031 68 298 7.0 15.0 0.00 0.00 0.00 31 1007.3
20260503193533 68 335 6.0 14.0 0.00 0.00 0.00 30 1007.3
20260503193014 68 355 6.0 14.0 0.00 0.00 0.00 31 1007.4
20260503192515 68 290 7.0 13.0 0.00 0.00 0.00 31 1007.3
20260503192017 68 320 9.0 13.0 0.00 0.00 0.00 31 1007.3
20260503191516 68 284 4.0 15.0 0.00 0.00 0.00 32 1007.3
20260503191017 68 344 7.0 15.0 0.00 0.00 0.00 32 1007.4
20260503190519 68 288 7.0 13.0 0.00 0.00 0.00 34 1007.4
20260503190020 68 331 6.0 13.0 0.00 0.00 0.00 31 1007.3
20260503185519 68 26 5.0 13.0 0.00 0.00 0.00 30 1007.3
20260503185021 68 309 8.0 15.0 0.00 0.00 0.00 29 1007.4
20260503184522 68 313 10.0 17.0 0.00 0.00 0.00 30 1007.4
20260503184023 68 317 6.0 17.0 0.00 0.00 0.00 30 1007.5
20260503183526 68 336 8.0 14.0 0.00 0.00 0.00 32 1007.6
20260503183029 67 327 6.0 18.0 0.00 0.00 0.00 37 1007.5
20260503182530 68 336 8.0 18.0 0.00 0.00 0.00 35 1007.6
20260503182032 68 309 7.0 12.0 0.00 0.00 0.00 35 1007.6
20260503181532 67 333 4.0 12.0 0.00 0.00 0.00 36 1007.5
20260503181033 67 317 7.0 17.0 0.00 0.00 0.00 36 1007.6
20260503180533 67 300 10.0 17.0 0.00 0.00 0.00 36 1007.7
20260503180033 67 9 6.0 14.0 0.00 0.00 0.00 39 1007.7
20260503175515 67 38 10.0 14.0 0.00 0.00 0.00 37 1007.7
20260503175018 67 311 6.0 16.0 0.00 0.00 0.00 36 1007.7
20260503174518 67 49 6.0 16.0 0.00 0.00 0.00 38 1007.8
20260503174020 67 19 7.0 13.0 0.00 0.00 0.00 36 1007.8
20260503173523 66 334 7.0 15.0 0.00 0.00 0.00 36 1007.8
20260503173025 67 335 8.0 16.0 0.00 0.00 0.00 37 1007.9
20260503172526 66 314 8.0 16.0 0.00 0.00 0.00 38 1007.9
20260503172028 66 40 7.0 15.0 0.00 0.00 0.00 39 1007.9
20260503171530 66 298 8.0 15.0 0.00 0.00 0.00 37 1008.0
20260503171032 66 303 8.0 15.0 0.00 0.00 0.00 39 1007.8
20260503170533 66 40 7.0 13.0 0.00 0.00 0.00 41 1007.9
20260503150517 62 311 9.0 15.0 0.00 0.00 0.00 45 1007.6
20260503131034 55 318 5.0 14.0 0.00 0.00 0.00 56 1006.5
20260503130537 55 323 6.0 14.0 0.00 0.00 0.00 56 1006.4
20260503110540 51 208 1.0 3.0 0.00 0.00 0.00 54 1005.1